Torna al catalogo

STARLINK-34565

AttivoComunicazioniVLEO
NORAD 64686·PAYLOAD·🇺🇸 United States

Lanciato Jun 28, 2025 da Cape Canaveral Space Force Station

Loading…

Prossimi Passaggi (prossime 24 ore)

TLE

AggiornatoSource: CelesTrak SupGP

Epoca: Sep 14, 2026, 21:20 UTC

1 64686C 25139Y   26257.88937500 -.00013850  00000+0 -40934-3 0  2570
2 64686  53.1597 324.0832 0001160  88.5286 132.7031 15.34386138    19

Traccia STARLINK-34565 in tempo reale con AllMySat

Download on the App Store